NOAA 16 DEB, 41374

Orbit data source: Space-Track

NOAA 16 DEB, 41374 is space debris in SSO originally from a launch on Thu, 21 Sep 2000 UTC launched from the Air Force Western Test Range (AFWTR). Debris objects in space refer to the collection of defunct objects orbiting the Earth. Examples of debris include non-operational satellites, rocket bodies, and fragments generated from explosions, collisions, or faulty payload assembly.

Loading next visibility...
Identifier
41374, 2000-055JT
Orbit
SSO
Country
Flag of USUS
Related business
Manufacturer
Unknown
Mission
Spacecraft
Bus & Motor
Unknown
Mass
Unknown
Launch date (UTC)
2000-09-21 (25 years ago)
Launch vehicle
Unknown
Launch site
Air Force Western Test Range (AFWTR)
Object type
Payload
Rocket body
Debris
Shape & HBR
Unknown shape, 0.1 m
Radar Cross Section
Small (<0.1 m²)

Expand to show TLE details & history
Last TLE update: 2 days ago

TLE from 2 days ago
0 NOAA 16 DEB
1 41374U 00055JT  25309.35307949  .00003383  00000-0  16485-2 0  9991
2 41374  98.7268 357.1658 0033894  93.1888 267.3167 14.18470084503715
Epoch: 2025-11-05T08:28Z
TLE epoch observation values (Epoch: 2025-11-05T08:28:26.067Z)
Latitude
0.00001°
Longitude
-174.76978°
Altitude
834.67 km
Speed
7.435 km/s
True Right ascension
23h 48m 39s
True Declination
0° 00' 00"
Sunlit
Object was in full shadow at epoch
Visualization orbit readout
Latitude
Unknown
Longitude
Unknown
Altitude
Unknown
Speed
Unknown
Apparent Right ascension
Unknown
Apparent Declination
Unknown
Sunlit
N/A
Visualization observer readout
Local Sidereal Time
08:59:29
Azimuth
Unknown
Elevation
Unknown
Doppler factor
Unknown
Orbital elements
Apogee altitude
852.116 km
Perigee altitude
803.269 km
Semi-major axis
7,205.83 km
Eccentricity
0.00339
Inclination
98.7268°
RAAN
357.1658°
Arg. of periapsis
93.1888°
True anomaly
266.92881°
Mean anomaly
267.3167°
Eccentric anomaly
267.12275°
Mean motion
3.54827 °/min
Orbital period
101.46 mins
BSTAR
0.0016485
Loading maneuver chart data...
Computing Atmospheric mass density...
Loading historical data...
Loading historical data...
Loading historical data...
Loading historical data...
Loading historical data...
Loading historical data...
Loading historical data...

Documentation

Showing up to 5 results
|